EZY787Y EGKK-EGPH

Flight info

Callsign EZY787Y
Flight time N/A
Altitude 38000
Route LAM L10 BPK UN601 RIBEL DCT INPIP
Aircraft A320/M-SDE3FGHIRWY/LB1

Departure

Time N/A
Airport London Gatwick Airport (EGKK)

Arrival

Time 2026-04-23 20:39
Airport Edinburgh Airport (EGPH)
Time Latitude Longitude Altitude Speed Heading
2026-04-23 20:14 54.42750 -2.57620 34938 ft 422 kts 339°
2026-04-23 20:15 54.45450 -2.59519 34402 ft 419 kts 339°
2026-04-23 20:15 54.48134 -2.61416 33837 ft 414 kts 339°
2026-04-23 20:15 54.50785 -2.63295 33340 ft 409 kts 339°
2026-04-23 20:15 54.53401 -2.65148 32816 ft 404 kts 339°
2026-04-23 20:16 54.55988 -2.66979 32324 ft 400 kts 339°
2026-04-23 20:16 54.58558 -2.68794 31809 ft 396 kts 339°
2026-04-23 20:16 54.61095 -2.70588 31325 ft 392 kts 339°
2026-04-23 20:16 54.63602 -2.72366 30862 ft 388 kts 339°
2026-04-23 20:17 54.66090 -2.74139 30369 ft 385 kts 339°
2026-04-23 20:17 54.68520 -2.75876 29892 ft 380 kts 339°
2026-04-23 20:17 54.70973 -2.77636 29437 ft 375 kts 339°
2026-04-23 20:17 54.73335 -2.79328 29011 ft 369 kts 338°
2026-04-23 20:18 54.75692 -2.81012 28587 ft 364 kts 338°
2026-04-23 20:18 54.78017 -2.82676 28165 ft 360 kts 338°
2026-04-23 20:18 54.80318 -2.84324 27755 ft 355 kts 338°
2026-04-23 20:18 54.82593 -2.85957 27348 ft 351 kts 338°
2026-04-23 20:19 54.84839 -2.87577 26943 ft 348 kts 338°
2026-04-23 20:19 54.87064 -2.89184 26540 ft 345 kts 338°
2026-04-23 20:19 54.89280 -2.90783 26095 ft 348 kts 338°
2026-04-23 20:19 54.91544 -2.92414 25590 ft 354 kts 338°
2026-04-23 20:20 54.93822 -2.94057 25097 ft 355 kts 338°
2026-04-23 20:20 54.96100 -2.95704 24605 ft 354 kts 338°
2026-04-23 20:20 54.98376 -2.97354 24109 ft 354 kts 338°
2026-04-23 20:20 55.00654 -2.99009 23555 ft 356 kts 338°
2026-04-23 20:21 55.02944 -3.00674 23054 ft 355 kts 338°
2026-04-23 20:21 55.05220 -3.02332 22558 ft 354 kts 338°
2026-04-23 20:21 55.07491 -3.03986 22067 ft 353 kts 338°
2026-04-23 20:21 55.09755 -3.05636 21570 ft 352 kts 338°
2026-04-23 20:22 55.11251 -3.06728 21248 ft 351 kts 337°
2026-04-23 20:22 55.13476 -3.08357 20754 ft 351 kts 337°
2026-04-23 20:22 55.16454 -3.10541 20052 ft 352 kts 337°
2026-04-23 20:22 55.18723 -3.12204 19441 ft 355 kts 336°
2026-04-23 20:23 55.20270 -3.13341 19038 ft 358 kts 337°
2026-04-23 20:23 55.22571 -3.15036 18469 ft 359 kts 336°
2026-04-23 20:23 55.24835 -3.16706 18327 ft 347 kts 336°
2026-04-23 20:23 55.26998 -3.18300 18155 ft 336 kts 336°
2026-04-23 20:24 55.29209 -3.19677 17826 ft 332 kts 346°
2026-04-23 20:24 55.31465 -3.20131 17460 ft 330 kts
2026-04-23 20:24 55.33747 -3.19821 17076 ft 328 kts
2026-04-23 20:24 55.36011 -3.19455 16709 ft 326 kts
2026-04-23 20:25 55.38270 -3.19103 16338 ft 325 kts
2026-04-23 20:25 55.40512 -3.18758 15985 ft 323 kts
2026-04-23 20:25 55.42734 -3.18419 15446 ft 318 kts
2026-04-23 20:25 55.44929 -3.18080 14798 ft 316 kts
2026-04-23 20:26 55.47108 -3.17742 14173 ft 312 kts
2026-04-23 20:26 55.49262 -3.17407 13495 ft 310 kts
2026-04-23 20:26 55.51399 -3.17073 12800 ft 307 kts
2026-04-23 20:26 55.53520 -3.16741 12125 ft 304 kts
2026-04-23 20:27 55.55622 -3.16419 11456 ft 302 kts
2026-04-23 20:27 55.57701 -3.16698 10554 ft 304 kts 347°
2026-04-23 20:27 55.59803 -3.17547 9355 ft 315 kts 345°
2026-04-23 20:27 55.61934 -3.18488 8726 ft 316 kts 345°
2026-04-23 20:28 55.64069 -3.19446 8544 ft 319 kts 345°
2026-04-23 20:28 55.66210 -3.20413 8209 ft 315 kts 345°
2026-04-23 20:28 55.68318 -3.21371 7789 ft 309 kts 345°
2026-04-23 20:28 55.70306 -3.22277 7661 ft 282 kts 345°
2026-04-23 20:29 55.72089 -3.23298 7527 ft 257 kts 329°
2026-04-23 20:29 55.73338 -3.25303 7208 ft 242 kts 300°
2026-04-23 20:29 55.73984 -3.28016 6683 ft 238 kts 286°
2026-04-23 20:29 55.74458 -3.30825 6118 ft 237 kts 285°
2026-04-23 20:30 55.74915 -3.33644 5690 ft 237 kts 285°
2026-04-23 20:30 55.75820 -3.39260 5330 ft 237 kts 284°
2026-04-23 20:30 55.76272 -3.42058 5149 ft 235 kts 281°
2026-04-23 20:31 55.76620 -3.44828 4972 ft 223 kts 280°
2026-04-23 20:31 55.76930 -3.47490 4790 ft 218 kts 280°
2026-04-23 20:31 55.77218 -3.50104 4613 ft 213 kts 279°
2026-04-23 20:31 55.77499 -3.52667 4430 ft 209 kts 279°
2026-04-23 20:32 55.77784 -3.55178 4255 ft 205 kts 279°
2026-04-23 20:32 55.78065 -3.57646 4087 ft 201 kts 279°
2026-04-23 20:32 55.78340 -3.60036 4003 ft 195 kts 279°
2026-04-23 20:32 55.78606 -3.62373 4001 ft 192 kts 280°
2026-04-23 20:33 55.78859 -3.64700 3997 ft 191 kts 279°
2026-04-23 20:33 55.79107 -3.67019 4002 ft 191 kts 279°
2026-04-23 20:33 55.79448 -3.69263 3989 ft 192 kts 300°
2026-04-23 20:33 55.80400 -3.70888 4000 ft 194 kts 332°
2026-04-23 20:34 55.81699 -3.71515 4002 ft 195 kts
2026-04-23 20:34 55.83007 -3.70993 3999 ft 195 kts 29°
2026-04-23 20:34 55.84011 -3.69420 3990 ft 193 kts 57°
2026-04-23 20:34 55.84718 -3.67388 3832 ft 193 kts 60°
2026-04-23 20:35 55.85418 -3.65331 3603 ft 194 kts 60°
2026-04-23 20:35 55.86123 -3.63269 3342 ft 197 kts 60°
2026-04-23 20:35 55.86843 -3.61167 3077 ft 199 kts 60°
2026-04-23 20:35 55.87569 -3.59047 2819 ft 201 kts 60°
2026-04-23 20:36 55.88287 -3.56952 2549 ft 195 kts 60°
2026-04-23 20:36 55.88977 -3.54933 2270 ft 185 kts 60°
2026-04-23 20:36 55.89638 -3.52998 2023 ft 180 kts 60°
2026-04-23 20:36 55.90277 -3.51127 1779 ft 174 kts 60°
2026-04-23 20:37 55.90894 -3.49317 1546 ft 167 kts 60°
2026-04-23 20:37 55.91474 -3.47619 1329 ft 159 kts 60°
2026-04-23 20:37 55.92032 -3.45979 1118 ft 149 kts 60°
2026-04-23 20:37 55.92560 -3.44430 905 ft 140 kts 59°
2026-04-23 20:38 55.93049 -3.42992 708 ft 135 kts 59°
2026-04-23 20:38 55.93531 -3.41574 536 ft 133 kts 58°
2026-04-23 20:38 55.94010 -3.40158 354 ft 134 kts 59°
2026-04-23 20:38 55.94488 -3.38751 158 ft 132 kts 59°
2026-04-23 20:39 55.94902 -3.37533 108 ft 79 kts 59°
2026-04-23 20:39 55.95153 -3.36791 108 ft 64 kts 59°
2026-04-23 20:39 55.95256 -3.36441 102 ft 16 kts 97°
2026-04-23 20:39 55.95175 -3.36332 103 ft 10 kts 149°
2026-04-23 20:40 55.95136 -3.36293 103 ft 3 kts 172°
2026-04-23 20:40 55.95108 -3.36353 105 ft 14 kts 240°
2026-04-23 20:40 55.95070 -3.36404 107 ft 5 kts 165°
2026-04-23 20:40 55.95035 -3.36386 107 ft 7 kts 177°
2026-04-23 20:41 55.95000 -3.36417 107 ft 5 kts 197°
2026-04-23 20:41 55.94970 -3.36390 106 ft 5 kts 147°
2026-04-23 20:41 55.94944 -3.36361 107 ft 4 kts 147°